�N����,����,�~����,�C��,���x,�C��,����,���ϕ���,�ő�u�ԕ���,�ő厞����,���˗�,�I�_���x,�n�����x,�ő啗���N��,DTYPE
"20/05/28","00:10",0.0,17.0,73.7,1002.2,348.6,1.7,3.4,349.8,0.00,12.3,20.2,"00:00:40",1
"20/05/28","00:20",0.0,16.8,74.3,1002.2,342.7,1.5,2.7,341.2,0.00,12.2,20.0,"00:15:12",1
"20/05/28","00:30",0.0,16.1,74.8,1002.4,303.5,0.8,2.5,301.8,0.00,11.7,19.9,"00:20:16",1
"20/05/28","00:40",0.0,15.5,76.2,1002.2,291.3,1.1,3.4,342.1,0.00,11.4,19.7,"00:39:04",1
"20/05/28","00:50",0.0,15.1,78.1,1002.4,293.0,1.2,2.5,331.2,0.00,11.4,19.8,"00:41:52",1
"20/05/28","01:00",0.0,14.7,79.4,1002.2,281.3,1.1,1.8,305.3,0.00,11.2,19.7,"00:52:40",1
"20/05/28","01:10",0.0,14.4,80.8,1002.4,284.2,1.1,1.9,275.6,0.00,11.2,19.4,"01:03:28",1
"20/05/28","01:20",0.0,14.3,81.8,1002.4,287.6,1.1,2.6,325.1,0.00,11.3,19.4,"01:15:04",1
"20/05/28","01:30",0.0,14.1,82.5,1002.4,297.3,0.7,1.3,333.9,0.00,11.2,19.3,"01:23:28",1
"20/05/28","01:40",0.0,14.0,83.2,1002.6,285.1,1.1,2.2,323.0,0.00,11.2,19.4,"01:30:02",1
"20/05/28","01:50",0.0,13.8,83.9,1002.2,296.7,1.2,2.4,323.4,0.00,11.2,19.4,"01:40:08",1
"20/05/28","02:00",0.0,13.8,84.6,1002.4,307.8,1.6,2.5,324.2,0.00,11.3,19.2,"01:56:56",1
"20/05/28","02:10",0.2,13.9,85.4,1002.4,322.4,1.6,2.2,322.3,0.00,11.5,19.1,"02:07:12",1
"20/05/28","02:20",0.0,14.1,86.1,1002.6,324.1,1.5,2.5,338.2,0.00,11.9,19.3,"02:17:12",1
"20/05/28","02:30",0.0,14.3,86.6,1002.4,331.7,2.3,3.6,340.5,0.00,12.1,19.1,"02:28:16",1
"20/05/28","02:40",0.0,14.3,86.7,1002.4,330.3,2.2,3.2,336.9,0.00,12.2,19.0,"02:30:48",1
"20/05/28","02:50",0.0,14.1,86.9,1002.6,280.1,0.8,1.7,331.8,0.00,12.0,18.9,"02:40:08",1
"20/05/28","03:00",0.0,14.1,87.2,1002.6,305.8,1.6,2.9,323.5,0.00,12.0,18.8,"02:58:32",1
"20/05/28","03:10",0.0,14.4,87.1,1002.4,317.5,2.3,3.7,322.6,0.00,12.3,18.8,"03:09:52",1
"20/05/28","03:20",0.0,14.4,86.9,1002.6,325.9,2.0,3.1,310.0,0.00,12.3,18.7,"03:10:08",1
"20/05/28","03:30",0.0,14.1,87.0,1002.9,338.1,1.6,2.7,343.3,0.00,12.0,18.7,"03:22:48",1
"20/05/28","03:40",0.0,14.0,87.1,1002.9,341.7,1.5,2.7,345.2,0.00,11.9,18.8,"03:39:36",1
"20/05/28","03:50",0.0,13.9,87.2,1002.4,332.0,2.2,3.2,331.4,0.00,11.8,18.7,"03:47:36",1
"20/05/28","04:00",0.0,13.8,87.3,1002.6,334.5,1.7,3.2,337.3,0.00,11.8,18.4,"03:55:04",1
"20/05/28","04:10",0.0,13.7,87.3,1002.6,330.7,1.5,2.4,346.7,0.00,11.7,18.8,"04:03:28",1
"20/05/28","04:20",0.0,13.5,87.3,1002.9,324.6,1.6,3.1,334.6,0.00,11.5,18.6,"04:11:04",1
"20/05/28","04:30",0.0,13.5,87.4,1003.1,330.8,1.2,1.9,327.0,0.00,11.5,18.5,"04:21:12",1
"20/05/28","04:40",0.0,13.4,87.5,1002.9,328.7,2.0,3.4,324.6,0.00,11.4,18.3,"04:39:04",1
"20/05/28","04:50",0.0,13.4,87.5,1002.6,330.3,2.1,4.0,337.8,0.00,11.4,18.5,"04:42:16",1
"20/05/28","05:00",0.0,13.3,87.6,1002.6,326.9,1.8,3.1,321.6,0.00,11.3,18.3,"04:53:12",1
"20/05/28","05:10",0.0,13.4,87.8,1002.6,329.8,2.1,3.4,332.6,0.00,11.5,18.3,"05:00:02",1
"20/05/28","05:20",0.0,13.4,87.9,1002.6,328.5,2.3,3.6,340.6,0.00,11.5,18.5,"05:10:08",1
"20/05/28","05:30",0.0,13.5,87.8,1003.1,309.0,2.1,3.5,322.1,0.00,11.6,18.2,"05:24:40",1
"20/05/28","05:40",0.0,13.6,87.7,1003.1,319.9,2.5,4.1,327.1,0.01,11.6,17.9,"05:34:56",1
"20/05/28","05:50",0.0,13.8,87.3,1003.1,321.0,2.0,3.1,348.2,0.02,11.8,18.1,"05:49:12",1
"20/05/28","06:00",0.0,13.8,87.0,1003.4,334.0,1.8,2.9,339.1,0.02,11.7,18.2,"05:53:04",1
"20/05/28","06:10",0.0,14.2,87.0,1002.9,335.7,1.7,2.6,340.2,0.05,12.1,18.2,"06:07:52",1
"20/05/28","06:20",0.0,14.5,86.8,1003.6,327.5,2.0,3.7,332.4,0.03,12.4,18.1,"06:13:12",1
"20/05/28","06:30",0.0,14.8,86.3,1003.4,333.1,2.1,4.0,314.2,0.08,12.6,18.2,"06:29:44",1
"20/05/28","06:40",0.0,15.1,85.0,1003.4,331.8,2.7,4.0,339.3,0.08,12.6,18.2,"06:33:12",1
"20/05/28","06:50",0.0,15.9,83.1,1003.1,330.0,2.5,4.0,342.0,0.13,13.1,18.4,"06:44:40",1
"20/05/28","07:00",0.0,16.8,80.3,1003.6,338.7,1.8,3.6,336.6,0.16,13.4,18.3,"06:56:32",1
"20/05/28","07:10",0.0,17.5,76.8,1003.8,337.9,2.1,3.7,319.0,0.17,13.4,18.6,"07:06:48",1
"20/05/28","07:20",0.0,18.3,73.3,1003.8,334.8,1.8,4.0,335.5,0.20,13.5,18.5,"07:12:16",1
"20/05/28","07:30",0.0,18.7,70.0,1003.8,335.7,1.7,3.2,334.7,0.20,13.2,18.9,"07:25:44",1
"20/05/28","07:40",0.0,19.4,68.0,1003.8,319.9,1.6,3.5,340.6,0.23,13.4,18.7,"07:39:20",1
"20/05/28","07:50",0.0,19.7,66.3,1003.6,302.0,1.2,2.5,346.4,0.26,13.3,18.9,"07:40:24",1
"20/05/28","08:00",0.0,20.5,64.5,1003.4,333.7,1.0,2.4,329.4,0.30,13.6,19.0,"07:53:20",1
"20/05/28","08:10",0.0,21.1,61.8,1003.1,353.4,0.8,1.8,25.9,0.34,13.5,19.4,"08:04:48",1
"20/05/28","08:20",0.0,21.8,60.7,1003.1,342.8,0.7,2.0,350.6,0.36,13.9,19.5,"08:17:20",1
"20/05/28","08:30",0.0,22.1,59.2,1002.9,291.4,0.8,2.5,196.6,0.39,13.8,19.6,"08:29:28",1
"20/05/28","08:40",0.0,21.9,57.7,1002.9,37.3,1.2,2.7,16.6,0.40,13.2,20.0,"08:36:24",1
"20/05/28","08:50",0.0,22.4,59.3,1002.9,75.8,0.7,2.0,30.4,0.43,14.1,20.3,"08:43:20",1
"20/05/28","09:00",0.0,22.3,56.0,1002.6,60.5,1.0,2.6,50.9,0.45,13.1,20.6,"08:52:24",1
"20/05/28","09:10",0.0,22.2,55.3,1002.2,27.6,1.1,2.8,3.4,0.47,12.9,20.8,"09:05:36",1
"20/05/28","09:20",0.0,22.9,56.4,1001.9,61.3,0.8,2.6,104.8,0.49,13.8,21.1,"09:17:44",1
"20/05/28","09:30",0.0,23.1,56.4,1001.7,166.4,1.2,3.7,120.0,0.51,14.0,21.1,"09:20:40",1
"20/05/28","09:40",0.0,23.5,54.6,1001.7,134.8,1.0,2.4,139.6,0.52,13.9,21.6,"09:36:56",1
"20/05/28","09:50",0.0,23.6,53.1,1001.7,228.3,1.6,3.6,221.4,0.54,13.5,21.7,"09:49:52",1
"20/05/28","10:00",0.0,23.6,52.9,1001.5,159.0,1.7,3.3,149.6,0.55,13.5,22.2,"09:54:16",1
"20/05/28","10:10",0.0,24.2,52.0,1001.5,167.1,1.3,3.2,135.4,0.57,13.8,22.2,"10:02:56",1
"20/05/28","10:20",0.0,24.8,50.6,1001.2,198.1,1.1,2.2,112.7,0.58,13.9,22.6,"10:19:52",1
"20/05/28","10:30",0.0,24.5,49.0,1001.2,184.1,1.8,4.7,186.8,0.59,13.1,22.9,"10:23:52",1
"20/05/28","10:40",0.0,25.2,50.3,1001.0,198.4,1.8,4.1,197.8,0.60,14.2,23.0,"10:30:56",1
"20/05/28","10:50",0.0,25.3,48.3,1001.0,178.1,2.0,4.9,224.3,0.60,13.6,23.5,"10:48:48",1
"20/05/28","11:00",0.0,25.0,45.2,1000.8,229.3,2.2,4.9,213.9,0.61,12.4,23.9,"10:59:52",1
"20/05/28","11:10",0.0,25.7,45.9,1000.5,233.6,1.8,4.0,203.8,0.62,13.2,24.1,"11:02:16",1
"20/05/28","11:20",0.0,26.1,45.1,1000.5,237.3,1.5,5.2,231.8,0.62,13.3,24.2,"11:12:16",1
"20/05/28","11:30",0.0,26.2,40.5,999.8,264.5,1.5,3.7,337.7,0.63,11.8,24.4,"11:21:44",1
"20/05/28","11:40",0.0,26.1,36.9,1000.0,284.2,2.0,5.8,233.4,0.63,10.3,24.7,"11:34:24",1
"20/05/28","11:50",0.0,26.3,34.4,1000.0,278.8,1.7,5.0,331.9,0.63,9.4,25.0,"11:47:36",1
"20/05/28","12:00",0.0,26.7,34.2,999.6,263.7,1.8,3.7,230.0,0.64,9.7,25.0,"11:54:16",1
"20/05/28","12:10",0.0,27.1,34.4,999.6,237.9,2.5,5.7,223.3,0.64,10.1,25.1,"12:04:32",1
"20/05/28","12:20",0.0,26.7,34.7,999.3,268.7,2.1,4.3,233.4,0.59,9.9,25.3,"12:11:52",1
"20/05/28","12:30",0.0,26.8,34.3,999.6,262.9,2.2,5.2,232.6,0.63,9.8,25.5,"12:20:48",1
"20/05/28","12:40",0.0,27.0,35.0,999.3,262.3,2.2,5.8,227.0,0.63,10.3,25.4,"12:35:04",1
"20/05/28","12:50",0.0,27.0,31.9,999.6,256.6,2.3,6.7,222.4,0.63,8.9,25.3,"12:40:40",1
"20/05/28","13:00",0.0,27.4,33.0,999.3,268.6,1.7,4.4,224.0,0.62,9.8,25.3,"12:56:24",1
"20/05/28","13:10",0.0,27.8,32.2,999.6,277.2,1.5,3.2,280.3,0.64,9.7,25.3,"13:00:56",1
"20/05/28","13:20",0.0,27.5,32.4,999.6,259.3,1.7,4.1,318.9,0.56,9.6,25.2,"13:11:12",1
"20/05/28","13:30",0.0,27.4,33.9,999.3,262.2,2.1,4.9,206.6,0.59,10.2,25.0,"13:27:12",1
"20/05/28","13:40",0.0,27.6,33.9,999.6,251.1,2.6,6.3,230.7,0.59,10.3,24.8,"13:35:04",1
"20/05/28","13:50",0.0,27.9,32.2,999.1,245.3,2.2,4.4,228.3,0.58,9.8,24.8,"13:46:00",1
"20/05/28","14:00",0.0,28.1,32.3,999.3,225.1,2.6,4.5,220.4,0.56,10.0,24.9,"13:50:16",1
"20/05/28","14:10",0.0,28.4,31.1,999.1,266.0,1.7,4.4,345.6,0.55,9.7,24.8,"14:05:58",1
"20/05/28","14:20",0.0,28.3,30.7,999.1,261.5,1.8,4.1,285.4,0.53,9.5,24.9,"14:17:20",1
"20/05/28","14:30",0.0,28.3,30.1,998.9,260.4,2.1,4.3,231.1,0.52,9.2,24.9,"14:23:28",1
"20/05/28","14:40",0.0,28.5,30.4,999.1,250.7,1.7,4.2,239.1,0.50,9.5,25.0,"14:36:24",1
"20/05/28","14:50",0.0,28.2,27.0,998.9,307.3,1.8,3.4,310.7,0.48,7.5,25.1,"14:40:56",1
"20/05/28","15:00",0.0,28.0,29.7,999.1,326.4,2.3,5.5,345.3,0.46,8.7,24.9,"14:54:40",1
"20/05/28","15:10",0.0,28.2,28.7,998.9,274.7,1.7,3.7,345.0,0.44,8.4,25.0,"15:01:28",1
"20/05/28","15:20",0.0,28.5,28.1,998.9,313.1,1.5,3.2,355.0,0.42,8.3,25.1,"15:13:36",1
"20/05/28","15:30",0.0,28.4,26.6,998.9,265.2,1.5,3.2,335.8,0.40,7.4,25.0,"15:28:56",1
"20/05/28","15:40",0.0,28.5,27.8,998.9,279.9,1.5,3.4,219.1,0.38,8.2,25.2,"15:30:02",1
"20/05/28","15:50",0.0,27.9,29.1,999.1,301.6,2.2,4.3,327.0,0.35,8.3,25.0,"15:49:52",1
"20/05/28","16:00",0.0,28.3,33.6,999.1,281.8,1.6,4.0,333.2,0.33,10.8,25.1,"15:52:16",1
"20/05/28","16:10",0.0,28.2,32.2,998.6,327.5,1.7,3.7,331.9,0.30,10.1,25.0,"16:09:36",1
"20/05/28","16:20",0.0,28.0,34.6,998.4,331.5,2.0,4.9,357.5,0.27,11.0,25.0,"16:13:44",1
"20/05/28","16:30",0.0,27.3,36.7,998.6,339.2,2.3,5.1,354.7,0.25,11.3,25.0,"16:29:12",1
"20/05/28","16:40",0.0,26.9,37.7,999.1,339.2,2.7,6.0,328.5,0.22,11.3,25.2,"16:33:44",1
"20/05/28","16:50",0.0,26.5,38.5,999.1,359.7,2.5,5.1,348.8,0.18,11.3,25.1,"16:43:44",1
"20/05/28","17:00",0.0,25.9,40.3,999.3,341.4,3.1,6.6,344.4,0.03,11.4,24.8,"16:53:28",1
"20/05/28","17:10",0.0,25.5,41.3,999.8,339.2,3.5,6.2,345.1,0.02,11.4,25.0,"17:00:56",1
"20/05/28","17:20",0.0,24.9,41.2,999.8,335.7,4.1,7.8,356.1,0.02,10.9,24.9,"17:17:20",1
"20/05/28","17:30",0.0,24.3,41.1,1000.0,338.5,4.6,8.9,336.1,0.01,10.3,24.7,"17:29:12",1
"20/05/28","17:40",0.0,24.0,40.7,1000.3,345.4,4.1,7.8,348.4,0.01,9.9,24.7,"17:33:12",1
"20/05/28","17:50",0.0,23.7,40.4,1001.0,336.9,3.9,7.2,334.5,0.01,9.5,24.3,"17:45:36",1
"20/05/28","18:00",0.0,23.3,38.7,1000.8,343.0,4.1,10.0,343.1,0.01,8.5,24.1,"17:56:24",1
"20/05/28","18:10",0.0,23.0,38.7,1001.0,342.8,3.7,6.8,344.5,0.00,8.2,24.1,"18:06:08",1
"20/05/28","18:20",0.0,22.4,39.5,1001.2,334.2,3.1,5.6,341.4,0.00,8.0,23.9,"18:11:04",1
"20/05/28","18:30",0.0,22.1,40.2,1001.7,334.5,2.2,5.1,336.6,0.00,8.0,23.6,"18:28:08",1
"20/05/28","18:40",0.0,21.8,38.9,1001.9,315.2,2.2,5.0,329.6,0.00,7.2,23.5,"18:38:56",1
"20/05/28","18:50",0.0,21.7,39.1,1002.2,345.3,2.6,7.0,337.1,0.00,7.2,23.6,"18:48:16",1
"20/05/28","19:00",0.0,21.9,37.8,1002.4,344.7,2.6,4.9,350.7,0.00,6.9,23.3,"18:53:52",1
"20/05/28","19:10",0.0,21.7,38.0,1002.6,314.0,1.8,4.3,352.8,0.00,6.8,23.1,"19:06:00",1
"20/05/28","19:20",0.0,21.4,38.2,1002.6,328.6,1.7,4.1,330.3,0.00,6.6,23.0,"19:16:24",1
"20/05/28","19:30",0.0,21.1,38.4,1002.6,304.2,1.1,3.5,337.2,0.00,6.4,22.8,"19:20:56",1
"20/05/28","19:40",0.0,20.9,39.3,1002.6,9.4,1.2,3.1,345.8,0.00,6.6,22.8,"19:35:12",1
"20/05/28","19:50",0.0,20.9,40.0,1002.9,11.9,1.3,2.8,337.7,0.00,6.8,22.7,"19:41:20",1
"20/05/28","20:00",0.0,20.6,41.1,1003.1,12.1,1.2,2.5,348.4,0.00,7.0,22.5,"19:57:52",1
"20/05/28","20:10",0.0,20.5,41.5,1003.6,0.3,1.2,3.2,349.6,0.00,7.0,22.3,"20:09:20",1
"20/05/28","20:20",0.0,20.4,40.5,1003.4,15.5,1.6,3.9,20.5,0.00,6.6,22.3,"20:18:16",1
"20/05/28","20:30",0.0,20.4,42.3,1003.4,13.4,2.0,4.2,23.7,0.00,7.2,22.0,"20:25:52",1
"20/05/28","20:40",0.0,20.0,45.2,1003.8,7.2,1.7,2.9,321.1,0.00,7.8,22.0,"20:30:56",1
"20/05/28","20:50",0.0,19.8,46.4,1004.1,19.0,1.7,4.0,2.3,0.00,8.0,21.7,"20:40:56",1
"20/05/28","21:00",0.0,19.6,47.1,1004.1,14.9,1.8,5.4,22.6,0.00,8.1,21.5,"20:50:56",1
"20/05/28","21:10",0.0,19.4,48.2,1004.1,10.3,2.2,4.1,9.5,0.00,8.2,21.7,"21:02:24",1
"20/05/28","21:20",0.0,19.2,49.5,1004.3,6.8,1.8,4.4,8.8,0.00,8.4,21.5,"21:17:52",1
"20/05/28","21:30",0.0,18.9,51.8,1004.5,357.1,1.8,3.9,10.9,0.00,8.8,21.4,"21:29:04",1
"20/05/28","21:40",0.0,18.7,53.6,1004.5,343.0,1.6,3.1,326.6,0.00,9.1,21.2,"21:37:04",1
"20/05/28","21:50",0.0,18.5,54.2,1004.5,339.4,1.8,3.9,336.9,0.00,9.1,21.1,"21:42:32",1
"20/05/28","22:00",0.0,18.0,55.5,1004.8,320.0,2.0,3.2,326.8,0.00,9.0,21.0,"21:51:36",1
"20/05/28","22:10",0.0,17.6,56.7,1004.8,311.8,1.5,2.6,310.4,0.00,9.0,21.0,"22:02:00",1
"20/05/28","22:20",0.0,17.0,57.1,1005.0,293.2,1.1,2.0,318.2,0.00,8.5,20.9,"22:10:08",1
"20/05/28","22:30",0.0,16.2,58.6,1004.8,289.3,0.8,2.2,325.9,0.00,8.1,20.8,"22:22:56",1
"20/05/28","22:40",0.0,15.9,60.4,1004.8,273.3,1.1,1.7,271.1,0.00,8.3,20.6,"22:31:36",1
"20/05/28","22:50",0.0,15.7,61.5,1005.0,271.7,1.1,1.8,271.0,0.00,8.4,20.5,"22:45:52",1
"20/05/28","23:00",0.0,15.4,62.7,1005.0,274.5,1.1,1.9,263.3,0.00,8.4,20.5,"22:53:12",1
"20/05/28","23:10",0.0,15.1,63.6,1005.2,280.2,0.8,1.6,263.6,0.00,8.3,20.3,"23:05:22",1
"20/05/28","23:20",0.0,14.9,64.8,1005.0,287.1,1.0,1.3,262.7,0.00,8.4,20.1,"23:13:36",1
"20/05/28","23:30",0.0,14.9,66.3,1005.2,279.8,1.0,1.8,266.7,0.00,8.7,19.9,"23:29:04",1
"20/05/28","23:40",0.0,14.7,67.3,1005.0,286.3,1.3,1.9,321.0,0.00,8.7,20.1,"23:32:32",1
"20/05/28","23:50",0.0,14.8,68.5,1005.2,307.5,1.7,2.8,335.6,0.00,9.1,19.8,"23:47:12",1
"20/05/28","24:00",0.0,14.9,69.0,1005.2,319.3,2.0,2.9,331.3,0.00,9.3,20.0,"23:55:04",1
